ES'HAIL 2

Last updated on Wed Sep 09 2026 00:03:02 GMT+0000 (Coordinated Universal Time)

1 43700U 18090A 26251.52144229 .00000123 00000+0 00000+0 0 9991 2 43700 0.0184 149.8235 0002534 54.8409 356.4211 1.00271544 28517
UTC large
Height (km)
Speed (km/s)
/
Latitude / Longitude
Inclination (degrees)
Orbital Period (minutes)
Azimuth
Elevation
Range (km)
Doppler Factor

Next 0 passes for location: London (51.5072 / 0.1276)

No passes found over London.
ES'HAIL 2